Voltar ao catálogo

UME 1

ISS 1

AtivoCiênciaLEO
NORAD 8709·PAYLOAD·🇯🇵 Japan

Lançado Feb 29, 1976 de Tanegashima Space Center

Loading…

Próximas Passagens (próximas 24 horas)

TLE

AtualizadoSource: Space-Track

Época: Sep 14, 2026, 14:17 UTC

1 08709U 76019A   26257.59573295  .00000003  00000-0  61208-4 0  9998
2 08709  69.6745 309.8184 0011174 200.7554 311.8406 13.71751576529353

Acompanhe UME 1 em tempo real com AllMySat

Download on the App Store